Time,TemperatureF,DewpointF,PressureIn,WindDirection,WindDirectionDegrees,WindSpeedMPH,WindSpeedGustMPH,Humidity,HourlyPrecipIn,Conditions,Clouds,dailyrainin,SoftwareType,DateUTC
2013-01-25 00:00:00,12.9,-3.5,30.46,West,271,0.0,4.0,47,0.00,,,0.00,VWS V14.01,2013-01-25 05:00:00,
2013-01-25 00:01:00,12.9,-3.5,30.46,West,260,4.0,4.0,47,0.00,,,0.00,VWS V14.01,2013-01-25 05:01:00,
2013-01-25 00:02:00,12.9,-3.5,30.46,West,275,3.0,4.0,47,0.00,,,0.00,VWS V14.01,2013-01-25 05:02:00,
2013-01-25 00:07:00,12.9,-4.0,30.46,SW,231,5.0,7.0,46,0.00,,,0.00,VWS V14.01,2013-01-25 05:07:00,
2013-01-25 00:12:00,12.9,-4.0,30.46,West,273,5.0,11.0,46,0.00,,,0.00,VWS V14.01,2013-01-25 05:12:00,
2013-01-25 00:15:00,12.9,-4.0,30.45,West,270,3.0,11.0,46,0.00,,,0.00,VWS V14.01,2013-01-25 05:15:00,
2013-01-25 00:17:00,12.9,-4.0,30.45,West,272,0.0,2.0,46,0.00,,,0.00,VWS V14.01,2013-01-25 05:17:00,
2013-01-25 00:22:00,12.7,-4.2,30.45,SW,229,0.0,6.0,46,0.00,,,0.00,VWS V14.01,2013-01-25 05:22:00,
2013-01-25 00:27:00,12.5,-4.3,30.45,WSW,247,0.0,6.0,46,0.00,,,0.00,VWS V14.01,2013-01-25 05:27:00,
2013-01-25 00:30:00,12.5,-4.3,30.46,WSW,248,1.0,7.0,46,0.00,,,0.00,VWS V14.01,2013-01-25 05:30:00,
2013-01-25 00:32:00,12.5,-4.3,30.46,WSW,243,0.0,2.0,46,0.00,,,0.00,VWS V14.01,2013-01-25 05:32:00,
2013-01-25 00:37:00,12.5,-4.3,30.46,WSW,243,0.0,7.0,46,0.00,,,0.00,VWS V14.01,2013-01-25 05:37:00,
2013-01-25 00:42:00,12.3,-5.0,30.46,WSW,257,1.0,7.0,45,0.00,,,0.00,VWS V14.01,2013-01-25 05:42:00,
2013-01-25 00:45:00,12.3,-4.5,30.47,WSW,248,1.0,8.0,46,0.00,,,0.00,VWS V14.01,2013-01-25 05:45:00,
2013-01-25 00:47:00,12.3,-4.5,30.47,NNW,338,1.0,6.0,46,0.00,,,0.00,VWS V14.01,2013-01-25 05:47:00,
2013-01-25 00:52:00,12.3,-4.5,30.47,NW,319,0.0,6.0,46,0.00,,,0.00,VWS V14.01,2013-01-25 05:52:00,
2013-01-25 00:57:00,12.2,-4.6,30.47,NW,315,4.0,6.0,46,0.00,,,0.00,VWS V14.01,2013-01-25 05:57:00,
2013-01-25 01:00:00,12.2,-4.6,30.46,NNW,338,1.0,10.0,46,0.00,,,0.00,VWS V14.01,2013-01-25 06:00:00,
2013-01-25 01:02:00,12.2,-4.6,30.46,NW,320,2.0,4.0,46,0.00,,,0.00,VWS V14.01,2013-01-25 06:02:00,
2013-01-25 01:07:00,12.2,-4.2,30.46,WNW,300,2.0,4.0,47,0.00,,,0.00,VWS V14.01,2013-01-25 06:07:00,
2013-01-25 01:12:00,12.2,-4.2,30.46,NE,44,6.0,9.0,47,0.00,,,0.00,VWS V14.01,2013-01-25 06:12:00,
2013-01-25 01:15:00,12.0,-3.9,30.46,WNW,292,1.0,9.0,48,0.00,,,0.00,VWS V14.01,2013-01-25 06:15:00,
2013-01-25 01:17:00,12.0,-3.9,30.46,NE,37,0.0,0.0,48,0.00,,,0.00,VWS V14.01,2013-01-25 06:17:00,
2013-01-25 01:22:00,12.0,-3.5,30.46,NW,317,0.0,8.0,49,0.00,,,0.00,VWS V14.01,2013-01-25 06:22:00,
2013-01-25 01:27:00,11.8,-3.7,30.46,SSW,213,6.0,11.0,49,0.00,,,0.00,VWS V14.01,2013-01-25 06:27:00,
2013-01-25 01:30:00,11.8,-3.2,30.46,NNE,22,2.0,11.0,50,0.00,,,0.00,VWS V14.01,2013-01-25 06:30:00,
2013-01-25 01:32:00,11.7,-3.3,30.46,NNE,26,0.0,6.0,50,0.00,,,0.00,VWS V14.01,2013-01-25 06:32:00,
2013-01-25 01:37:00,11.7,-2.9,30.46,North,351,0.0,6.0,51,0.00,,,0.00,VWS V14.01,2013-01-25 06:37:00,
2013-01-25 01:42:00,11.5,-3.1,30.46,West,275,0.0,7.0,51,0.00,,,0.00,VWS V14.01,2013-01-25 06:42:00,
2013-01-25 01:45:00,11.3,-3.3,30.45,West,270,2.0,8.0,51,0.00,,,0.00,VWS V14.01,2013-01-25 06:45:00,
2013-01-25 01:47:00,11.3,-2.9,30.45,West,265,4.0,6.0,52,0.00,,,0.00,VWS V14.01,2013-01-25 06:47:00,
2013-01-25 01:52:00,11.1,-3.1,30.45,West,276,3.0,6.0,52,0.00,,,0.00,VWS V14.01,2013-01-25 06:52:00,
2013-01-25 01:57:00,11.0,-3.2,30.45,West,281,5.0,8.0,52,0.00,,,0.00,VWS V14.01,2013-01-25 06:57:00,
2013-01-25 02:00:00,11.0,-3.2,30.45,West,270,3.0,8.0,52,0.00,,,0.00,VWS V14.01,2013-01-25 07:00:00,
2013-01-25 02:02:00,11.0,-3.2,30.45,West,267,6.0,9.0,52,0.00,,,0.00,VWS V14.01,2013-01-25 07:02:00,
2013-01-25 02:07:00,10.8,-3.0,30.45,West,279,3.0,9.0,53,0.00,,,0.00,VWS V14.01,2013-01-25 07:07:00,
2013-01-25 02:12:00,10.8,-3.0,30.45,West,267,6.0,9.0,53,0.00,,,0.00,VWS V14.01,2013-01-25 07:12:00,
2013-01-25 02:15:00,10.8,-3.0,30.45,West,270,4.0,9.0,53,0.00,,,0.00,VWS V14.01,2013-01-25 07:15:00,
2013-01-25 02:17:00,10.8,-3.0,30.45,West,269,4.0,6.0,53,0.00,,,0.00,VWS V14.01,2013-01-25 07:17:00,
2013-01-25 02:22:00,10.8,-3.0,30.45,West,276,2.0,6.0,53,0.00,,,0.00,VWS V14.01,2013-01-25 07:22:00,
2013-01-25 02:27:00,10.8,-2.6,30.45,WSW,248,0.0,7.0,54,0.00,,,0.00,VWS V14.01,2013-01-25 07:27:00,
2013-01-25 02:30:00,10.8,-2.6,30.46,West,270,2.0,7.0,54,0.00,,,0.00,VWS V14.01,2013-01-25 07:30:00,
2013-01-25 02:32:00,10.8,-2.6,30.46,West,270,0.0,5.0,54,0.00,,,0.00,VWS V14.01,2013-01-25 07:32:00,
2013-01-25 02:37:00,10.8,-2.6,30.46,WNW,286,0.0,5.0,54,0.00,,,0.00,VWS V14.01,2013-01-25 07:37:00,
2013-01-25 02:42:00,10.8,-2.2,30.46,WNW,284,0.0,7.0,55,0.00,,,0.00,VWS V14.01,2013-01-25 07:42:00,
2013-01-25 02:45:00,10.8,-2.2,30.46,WNW,292,1.0,7.0,55,0.00,,,0.00,VWS V14.01,2013-01-25 07:45:00,
2013-01-25 02:47:00,10.8,-2.6,30.46,West,276,2.0,5.0,54,0.00,,,0.00,VWS V14.01,2013-01-25 07:47:00,
2013-01-25 02:52:00,10.8,-2.2,30.46,WNW,286,1.0,5.0,55,0.00,,,0.00,VWS V14.01,2013-01-25 07:52:00,
2013-01-25 02:57:00,10.8,-2.2,30.46,WSW,256,0.0,5.0,55,0.00,,,0.00,VWS V14.01,2013-01-25 07:57:00,
2013-01-25 03:00:00,10.8,-2.2,30.45,West,270,1.0,6.0,55,0.00,,,0.00,VWS V14.01,2013-01-25 08:00:00,
2013-01-25 03:02:00,10.8,-2.2,30.45,WSW,249,4.0,5.0,55,0.00,,,0.00,VWS V14.01,2013-01-25 08:02:00,
2013-01-25 03:07:00,10.6,-2.0,30.45,West,259,0.0,6.0,56,0.00,,,0.00,VWS V14.01,2013-01-25 08:07:00,
2013-01-25 03:12:00,10.6,-2.0,30.45,West,259,0.0,6.0,56,0.00,,,0.00,VWS V14.01,2013-01-25 08:12:00,
2013-01-25 03:15:00,10.6,-2.0,30.44,WSW,248,1.0,6.0,56,0.00,,,0.00,VWS V14.01,2013-01-25 08:15:00,
2013-01-25 03:17:00,10.6,-2.0,30.44,West,259,0.0,0.0,56,0.00,,,0.00,VWS V14.01,2013-01-25 08:17:00,
2013-01-25 03:22:00,10.5,-1.7,30.44,West,259,0.0,0.0,57,0.00,,,0.00,VWS V14.01,2013-01-25 08:22:00,
2013-01-25 03:27:00,10.3,-1.5,30.44,West,259,0.0,0.0,58,0.00,,,0.00,VWS V14.01,2013-01-25 08:27:00,
2013-01-25 03:30:00,10.3,-1.5,30.45,WSW,248,0.0,0.0,58,0.00,,,0.00,VWS V14.01,2013-01-25 08:30:00,
2013-01-25 03:32:00,10.3,-1.5,30.45,West,259,0.0,0.0,58,0.00,,,0.00,VWS V14.01,2013-01-25 08:32:00,
2013-01-25 03:37:00,10.1,-1.7,30.45,West,259,0.0,0.0,58,0.00,,,0.00,VWS V14.01,2013-01-25 08:37:00,
2013-01-25 03:42:00,9.9,-1.5,30.45,West,259,0.0,0.0,59,0.00,,,0.00,VWS V14.01,2013-01-25 08:42:00,
2013-01-25 03:45:00,9.9,-1.5,30.45,WSW,248,0.0,0.0,59,0.00,,,0.00,VWS V14.01,2013-01-25 08:45:00,
2013-01-25 03:47:00,9.9,-1.5,30.45,West,259,0.0,0.0,59,0.00,,,0.00,VWS V14.01,2013-01-25 08:47:00,
2013-01-25 03:52:00,9.9,-1.5,30.45,West,259,0.0,0.0,59,0.00,,,0.00,VWS V14.01,2013-01-25 08:52:00,
2013-01-25 03:57:00,9.8,-1.3,30.45,West,259,0.0,0.0,60,0.00,,,0.00,VWS V14.01,2013-01-25 08:57:00,
2013-01-25 04:00:00,9.8,-1.3,30.44,WSW,248,0.0,0.0,60,0.00,,,0.00,VWS V14.01,2013-01-25 09:00:00,
2013-01-25 04:02:00,9.6,-1.5,30.44,West,259,0.0,0.0,60,0.00,,,0.00,VWS V14.01,2013-01-25 09:02:00,
2013-01-25 04:07:00,9.8,-1.3,30.44,WNW,286,1.0,4.0,60,0.00,,,0.00,VWS V14.01,2013-01-25 09:07:00,
2013-01-25 04:12:00,9.9,-1.2,30.44,West,273,0.0,6.0,60,0.00,,,0.00,VWS V14.01,2013-01-25 09:12:00,
2013-01-25 04:15:00,10.1,-1.0,30.44,West,270,1.0,6.0,60,0.00,,,0.00,VWS V14.01,2013-01-25 09:15:00,
2013-01-25 04:17:00,10.1,-1.0,30.44,West,271,0.0,5.0,60,0.00,,,0.00,VWS V14.01,2013-01-25 09:17:00,
2013-01-25 04:22:00,10.3,-0.8,30.44,WSW,255,8.0,8.0,60,0.00,,,0.00,VWS V14.01,2013-01-25 09:22:00,
2013-01-25 04:27:00,10.6,-0.5,30.44,SW,221,4.0,8.0,60,0.00,,,0.00,VWS V14.01,2013-01-25 09:27:00,
2013-01-25 04:30:00,10.6,-0.9,30.43,SW,225,2.0,10.0,59,0.00,,,0.00,VWS V14.01,2013-01-25 09:30:00,
2013-01-25 04:32:00,10.6,-0.9,30.43,WSW,253,2.0,5.0,59,0.00,,,0.00,VWS V14.01,2013-01-25 09:32:00,
2013-01-25 04:37:00,10.6,-0.5,30.43,SW,223,0.0,5.0,60,0.00,,,0.00,VWS V14.01,2013-01-25 09:37:00,
2013-01-25 04:42:00,10.8,-0.3,30.43,WSW,248,0.0,5.0,60,0.00,,,0.00,VWS V14.01,2013-01-25 09:42:00,
2013-01-25 04:45:00,10.8,-0.3,30.44,WSW,248,1.0,5.0,60,0.00,,,0.00,VWS V14.01,2013-01-25 09:45:00,
2013-01-25 04:47:00,10.8,-0.3,30.44,WSW,248,0.0,0.0,60,0.00,,,0.00,VWS V14.01,2013-01-25 09:47:00,
2013-01-25 04:52:00,10.6,-0.5,30.44,West,274,0.0,2.0,60,0.00,,,0.00,VWS V14.01,2013-01-25 09:52:00,
2013-01-25 04:57:00,10.8,-0.3,30.44,WSW,257,0.0,2.0,60,0.00,,,0.00,VWS V14.01,2013-01-25 09:57:00,
2013-01-25 05:00:00,10.8,-0.3,30.45,West,270,0.0,2.0,60,0.00,,,0.00,VWS V14.01,2013-01-25 10:00:00,
2013-01-25 05:02:00,10.8,-0.3,30.45,WSW,257,1.0,3.0,60,0.00,,,0.00,VWS V14.01,2013-01-25 10:02:00,
2013-01-25 05:07:00,10.8,-0.3,30.45,WSW,257,0.0,3.0,60,0.00,,,0.00,VWS V14.01,2013-01-25 10:07:00,
2013-01-25 05:12:00,10.8,-0.3,30.45,WSW,257,0.0,3.0,60,0.00,,,0.00,VWS V14.01,2013-01-25 10:12:00,
2013-01-25 05:15:00,10.8,0.0,30.46,WSW,248,0.0,3.0,61,0.00,,,0.00,VWS V14.01,2013-01-25 10:15:00,
2013-01-25 05:17:00,10.8,0.0,30.46,WSW,257,0.0,0.0,61,0.00,,,0.00,VWS V14.01,2013-01-25 10:17:00,
2013-01-25 05:22:00,10.8,0.0,30.46,WSW,257,0.0,0.0,61,0.00,,,0.00,VWS V14.01,2013-01-25 10:22:00,
2013-01-25 05:27:00,10.8,0.3,30.46,WSW,257,0.0,0.0,62,0.00,,,0.00,VWS V14.01,2013-01-25 10:27:00,
2013-01-25 05:30:00,10.8,0.3,30.46,WSW,248,0.0,3.0,62,0.00,,,0.00,VWS V14.01,2013-01-25 10:30:00,
2013-01-25 05:32:00,10.8,0.3,30.46,WSW,258,0.0,0.0,62,0.00,,,0.00,VWS V14.01,2013-01-25 10:32:00,
2013-01-25 05:37:00,11.0,0.2,30.46,WNW,283,0.0,4.0,61,0.00,,,0.00,VWS V14.01,2013-01-25 10:37:00,
2013-01-25 05:42:00,11.1,0.3,30.46,NNW,340,1.0,4.0,61,0.00,,,0.00,VWS V14.01,2013-01-25 10:42:00,
2013-01-25 05:45:00,11.1,0.6,30.45,West,270,1.0,5.0,62,0.00,,,0.00,VWS V14.01,2013-01-25 10:45:00,
2013-01-25 05:47:00,11.3,0.8,30.45,NW,315,0.0,2.0,62,0.00,,,0.00,VWS V14.01,2013-01-25 10:47:00,
2013-01-25 05:52:00,11.3,0.5,30.45,NNW,334,0.0,5.0,61,0.00,,,0.00,VWS V14.01,2013-01-25 10:52:00,
2013-01-25 05:57:00,11.5,0.7,30.45,West,271,3.0,6.0,61,0.00,,,0.00,VWS V14.01,2013-01-25 10:57:00,
2013-01-25 06:00:00,11.5,0.7,30.44,WNW,292,1.0,6.0,61,0.00,,,0.00,VWS V14.01,2013-01-25 11:00:00,
2013-01-25 06:02:00,11.5,0.7,30.44,WNW,292,0.0,2.0,61,0.00,,,0.00,VWS V14.01,2013-01-25 11:02:00,
2013-01-25 06:07:00,11.5,0.7,30.44,West,260,2.0,5.0,61,0.00,,,0.00,VWS V14.01,2013-01-25 11:07:00,
2013-01-25 06:12:00,11.5,0.3,30.44,WSW,252,2.0,6.0,60,0.00,,,0.00,VWS V14.01,2013-01-25 11:12:00,
2013-01-25 06:15:00,11.5,0.7,30.43,West,270,1.0,6.0,61,0.00,,,0.00,VWS V14.01,2013-01-25 11:15:00,
2013-01-25 06:17:00,11.5,0.7,30.43,SSW,204,8.0,8.0,61,0.00,,,0.00,VWS V14.01,2013-01-25 11:17:00,
2013-01-25 06:22:00,11.7,0.9,30.43,SW,215,4.0,10.0,61,0.00,,,0.00,VWS V14.01,2013-01-25 11:22:00,
2013-01-25 06:27:00,11.7,0.9,30.43,West,265,0.0,10.0,61,0.00,,,0.00,VWS V14.01,2013-01-25 11:27:00,
2013-01-25 06:30:00,11.7,0.9,30.44,West,270,1.0,11.0,61,0.00,,,0.00,VWS V14.01,2013-01-25 11:30:00,
2013-01-25 06:32:00,11.7,0.9,30.44,West,265,0.0,0.0,61,0.00,,,0.00,VWS V14.01,2013-01-25 11:32:00,
2013-01-25 06:37:00,11.7,0.9,30.44,NW,323,0.0,2.0,61,0.00,,,0.00,VWS V14.01,2013-01-25 11:37:00,
2013-01-25 06:42:00,11.7,0.9,30.44,NW,323,0.0,2.0,61,0.00,,,0.00,VWS V14.01,2013-01-25 11:42:00,
2013-01-25 06:45:00,11.7,0.9,30.44,North,0,0.0,3.0,61,0.00,,,0.00,VWS V14.01,2013-01-25 11:45:00,
2013-01-25 06:47:00,11.7,0.9,30.44,NNE,23,1.0,1.0,61,0.00,,,0.00,VWS V14.01,2013-01-25 11:47:00,
2013-01-25 06:52:00,11.8,1.0,30.44,NNE,23,0.0,1.0,61,0.00,,,0.00,VWS V14.01,2013-01-25 11:52:00,
2013-01-25 06:57:00,11.8,1.0,30.44,NNE,23,0.0,1.0,61,0.00,,,0.00,VWS V14.01,2013-01-25 11:57:00,
2013-01-25 07:00:00,11.8,1.0,30.44,NNE,22,0.0,2.0,61,0.00,,,0.00,VWS V14.01,2013-01-25 12:00:00,
2013-01-25 07:02:00,11.8,1.0,30.44,NNE,23,0.0,0.0,61,0.00,,,0.00,VWS V14.01,2013-01-25 12:02:00,
2013-01-25 07:07:00,12.0,1.5,30.44,NNE,23,0.0,0.0,62,0.00,,,0.00,VWS V14.01,2013-01-25 12:07:00,
2013-01-25 07:12:00,12.0,1.5,30.44,West,269,1.0,4.0,62,0.00,,,0.00,VWS V14.01,2013-01-25 12:12:00,
2013-01-25 07:15:00,12.0,1.5,30.44,West,270,1.0,4.0,62,0.00,,,0.00,VWS V14.01,2013-01-25 12:15:00,
2013-01-25 07:17:00,11.8,1.3,30.44,West,279,0.0,1.0,62,0.00,,,0.00,VWS V14.01,2013-01-25 12:17:00,
2013-01-25 07:22:00,11.8,1.3,30.44,WNW,288,0.0,3.0,62,0.00,,,0.00,VWS V14.01,2013-01-25 12:22:00,
2013-01-25 07:27:00,11.7,1.2,30.44,NW,306,0.0,4.0,62,0.00,,,0.00,VWS V14.01,2013-01-25 12:27:00,
2013-01-25 07:30:00,11.7,1.2,30.43,NW,315,0.0,4.0,62,0.00,,,0.00,VWS V14.01,2013-01-25 12:30:00,
2013-01-25 07:32:00,11.7,1.2,30.43,WNW,299,0.0,0.0,62,0.00,,,0.00,VWS V14.01,2013-01-25 12:32:00,
2013-01-25 07:37:00,11.7,1.5,30.43,WNW,298,2.0,2.0,63,0.00,,,0.00,VWS V14.01,2013-01-25 12:37:00,
2013-01-25 07:42:00,11.5,1.4,30.43,WNW,298,0.0,2.0,63,0.00,,,0.00,VWS V14.01,2013-01-25 12:42:00,
2013-01-25 07:45:00,11.5,1.4,30.44,WNW,292,0.0,3.0,63,0.00,,,0.00,VWS V14.01,2013-01-25 12:45:00,
2013-01-25 07:46:00,11.5,1.4,30.44,WNW,298,0.0,0.0,63,0.00,,,0.00,VWS V14.01,2013-01-25 12:46:00,
2013-01-25 07:51:00,11.7,1.9,30.44,WNW,298,0.0,0.0,64,0.00,,,0.00,VWS V14.01,2013-01-25 12:51:00,
2013-01-25 07:56:00,11.7,1.9,30.44,WNW,298,0.0,1.0,64,0.00,,,0.00,VWS V14.01,2013-01-25 12:56:00,
2013-01-25 08:00:00,11.7,1.9,30.43,WNW,292,0.0,1.0,64,0.00,,,0.00,VWS V14.01,2013-01-25 13:00:00,
2013-01-25 08:01:00,11.7,1.9,30.43,WNW,298,0.0,0.0,64,0.00,,,0.00,VWS V14.01,2013-01-25 13:01:00,
2013-01-25 08:06:00,11.8,2.0,30.43,WNW,302,2.0,2.0,64,0.00,,,0.00,VWS V14.01,2013-01-25 13:06:00,
2013-01-25 08:11:00,12.0,2.2,30.43,NW,323,0.0,2.0,64,0.00,,,0.00,VWS V14.01,2013-01-25 13:11:00,
2013-01-25 08:15:00,12.0,2.2,30.43,NW,315,0.0,2.0,64,0.00,,,0.00,VWS V14.01,2013-01-25 13:15:00,
2013-01-25 08:16:00,12.0,1.8,30.43,NW,323,0.0,0.0,63,0.00,,,0.00,VWS V14.01,2013-01-25 13:16:00,
2013-01-25 08:21:00,12.2,2.0,30.43,NW,323,0.0,0.0,63,0.00,,,0.00,VWS V14.01,2013-01-25 13:21:00,
2013-01-25 08:26:00,12.3,2.1,30.43,NW,321,0.0,2.0,63,0.00,,,0.00,VWS V14.01,2013-01-25 13:26:00,
2013-01-25 08:30:00,12.5,2.0,30.43,NW,315,0.0,2.0,62,0.00,,,0.00,VWS V14.01,2013-01-25 13:30:00,
2013-01-25 08:31:00,12.5,2.0,30.43,NW,321,3.0,3.0,62,0.00,,,0.00,VWS V14.01,2013-01-25 13:31:00,
2013-01-25 08:36:00,12.5,2.0,30.43,NE,44,0.0,6.0,62,0.00,,,0.00,VWS V14.01,2013-01-25 13:36:00,
2013-01-25 08:41:00,12.7,2.2,30.43,NE,44,0.0,6.0,62,0.00,,,0.00,VWS V14.01,2013-01-25 13:41:00,
2013-01-25 08:45:00,13.0,2.4,30.43,NE,45,1.0,6.0,62,0.00,,,0.00,VWS V14.01,2013-01-25 13:45:00,
2013-01-25 08:46:00,13.0,2.4,30.43,NNE,26,0.0,1.0,62,0.00,,,0.00,VWS V14.01,2013-01-25 13:46:00,
2013-01-25 08:51:00,13.0,2.1,30.43,North,5,3.0,6.0,61,0.00,,,0.00,VWS V14.01,2013-01-25 13:51:00,
2013-01-25 08:56:00,13.0,2.1,30.43,North,10,0.0,6.0,61,0.00,,,0.00,VWS V14.01,2013-01-25 13:56:00,
2013-01-25 09:00:00,13.2,2.3,30.43,North,0,1.0,6.0,61,0.00,,,0.00,VWS V14.01,2013-01-25 14:00:00,
2013-01-25 09:01:00,13.2,2.3,30.43,West,268,0.0,2.0,61,0.00,,,0.00,VWS V14.01,2013-01-25 14:01:00,
2013-01-25 09:06:00,13.4,2.5,30.43,WNW,297,3.0,5.0,61,0.00,,,0.00,VWS V14.01,2013-01-25 14:06:00,
2013-01-25 09:11:00,13.4,2.1,30.43,West,273,6.0,8.0,60,0.00,,,0.00,VWS V14.01,2013-01-25 14:11:00,
2013-01-25 09:15:00,13.5,2.2,30.43,WSW,248,2.0,8.0,60,0.00,,,0.00,VWS V14.01,2013-01-25 14:15:00,
2013-01-25 09:16:00,13.5,2.2,30.43,WNW,292,0.0,2.0,60,0.00,,,0.00,VWS V14.01,2013-01-25 14:16:00,
2013-01-25 09:21:00,13.7,2.4,30.43,NW,320,0.0,4.0,60,0.00,,,0.00,VWS V14.01,2013-01-25 14:21:00,
2013-01-25 09:26:00,13.7,2.0,30.43,West,259,4.0,7.0,59,0.00,,,0.00,VWS V14.01,2013-01-25 14:26:00,
2013-01-25 09:30:00,13.7,2.0,30.43,West,270,1.0,7.0,59,0.00,,,0.00,VWS V14.01,2013-01-25 14:30:00,
2013-01-25 09:31:00,13.9,2.2,30.43,West,271,6.0,6.0,59,0.00,,,0.00,VWS V14.01,2013-01-25 14:31:00,
2013-01-25 09:36:00,13.9,2.6,30.43,NW,315,0.0,6.0,60,0.00,,,0.00,VWS V14.01,2013-01-25 14:36:00,
2013-01-25 09:41:00,14.2,2.5,30.43,North,9,2.0,6.0,59,0.00,,,0.00,VWS V14.01,2013-01-25 14:41:00,
2013-01-25 09:45:00,14.2,2.5,30.43,North,0,1.0,6.0,59,0.00,,,0.00,VWS V14.01,2013-01-25 14:45:00,
2013-01-25 09:46:00,14.4,2.7,30.43,NNW,329,0.0,1.0,59,0.00,,,0.00,VWS V14.01,2013-01-25 14:46:00,
2013-01-25 09:51:00,14.2,2.2,30.43,NW,310,0.0,6.0,58,0.00,,,0.00,VWS V14.01,2013-01-25 14:51:00,
2013-01-25 09:56:00,14.6,2.2,30.43,NNE,28,0.0,7.0,57,0.00,,,0.00,VWS V14.01,2013-01-25 14:56:00,
2013-01-25 10:00:00,14.4,2.0,30.43,ENE,68,2.0,7.0,57,0.00,,,0.00,VWS V14.01,2013-01-25 15:00:00,
2013-01-25 10:01:00,14.4,2.3,30.43,NNW,336,5.0,5.0,58,0.00,,,0.00,VWS V14.01,2013-01-25 15:01:00,
2013-01-25 10:06:00,14.6,2.2,30.43,West,279,4.0,8.0,57,0.00,,,0.00,VWS V14.01,2013-01-25 15:06:00,
2013-01-25 10:11:00,14.9,2.8,30.43,North,5,0.0,8.0,58,0.00,,,0.00,VWS V14.01,2013-01-25 15:11:00,
2013-01-25 10:15:00,15.2,2.7,30.43,West,270,2.0,8.0,57,0.00,,,0.00,VWS V14.01,2013-01-25 15:15:00,
2013-01-25 10:16:00,15.2,2.3,30.43,North,9,0.0,2.0,56,0.00,,,0.00,VWS V14.01,2013-01-25 15:16:00,
2013-01-25 10:21:00,15.0,1.8,30.43,NW,320,4.0,6.0,55,0.00,,,0.00,VWS V14.01,2013-01-25 15:21:00,
2013-01-25 10:26:00,15.0,2.1,30.43,NNW,330,0.0,6.0,56,0.00,,,0.00,VWS V14.01,2013-01-25 15:26:00,
2013-01-25 10:30:00,15.2,2.7,30.42,NW,315,1.0,6.0,57,0.00,,,0.00,VWS V14.01,2013-01-25 15:30:00,
2013-01-25 10:31:00,15.4,2.9,30.42,NNW,348,4.0,6.0,57,0.00,,,0.00,VWS V14.01,2013-01-25 15:31:00,
2013-01-25 10:36:00,15.4,2.1,30.42,NW,320,0.0,6.0,55,0.00,,,0.00,VWS V14.01,2013-01-25 15:36:00,
2013-01-25 10:41:00,15.4,2.5,30.42,WNW,301,0.0,6.0,56,0.00,,,0.00,VWS V14.01,2013-01-25 15:41:00,
2013-01-25 10:45:00,15.2,2.0,30.41,NNW,338,1.0,6.0,55,0.00,,,0.00,VWS V14.01,2013-01-25 15:45:00,
2013-01-25 10:46:00,15.2,2.3,30.41,West,281,0.0,4.0,56,0.00,,,0.00,VWS V14.01,2013-01-25 15:46:00,
2013-01-25 10:51:00,15.2,2.0,30.41,West,277,0.0,4.0,55,0.00,,,0.00,VWS V14.01,2013-01-25 15:51:00,
2013-01-25 10:56:00,16.0,2.7,30.41,WNW,294,0.0,6.0,55,0.00,,,0.00,VWS V14.01,2013-01-25 15:56:00,
2013-01-25 11:00:00,15.8,2.9,30.39,WNW,292,1.0,6.0,56,0.00,,,0.00,VWS V14.01,2013-01-25 16:00:00,
2013-01-25 11:01:00,16.0,2.7,30.39,NNE,24,0.0,0.0,55,0.00,,,0.00,VWS V14.01,2013-01-25 16:01:00,
2013-01-25 11:06:00,15.7,2.4,30.39,NNE,25,0.0,3.0,55,0.00,,,0.00,VWS V14.01,2013-01-25 16:06:00,
2013-01-25 11:11:00,15.7,2.0,30.39,NE,53,5.0,6.0,54,0.00,,,0.00,VWS V14.01,2013-01-25 16:11:00,
2013-01-25 11:15:00,16.2,3.3,30.38,NE,45,2.0,6.0,56,0.00,,,0.00,VWS V14.01,2013-01-25 16:15:00,
2013-01-25 11:16:00,16.2,2.5,30.38,NE,54,0.0,0.0,54,0.00,,,0.00,VWS V14.01,2013-01-25 16:16:00,
2013-01-25 11:21:00,15.8,1.7,30.38,NE,52,2.0,5.0,53,0.00,,,0.00,VWS V14.01,2013-01-25 16:21:00,
2013-01-25 11:26:00,16.2,2.5,30.38,NE,52,0.0,5.0,54,0.00,,,0.00,VWS V14.01,2013-01-25 16:26:00,
2013-01-25 11:30:00,16.2,2.1,30.36,NE,45,0.0,5.0,53,0.00,,,0.00,VWS V14.01,2013-01-25 16:30:00,
2013-01-25 11:31:00,16.2,2.1,30.36,NE,52,0.0,0.0,53,0.00,,,0.00,VWS V14.01,2013-01-25 16:31:00,
2013-01-25 11:36:00,16.8,2.7,30.36,NE,52,0.0,1.0,53,0.00,,,0.00,VWS V14.01,2013-01-25 16:36:00,
2013-01-25 11:41:00,17.0,3.6,30.36,NE,52,0.0,3.0,55,0.00,,,0.00,VWS V14.01,2013-01-25 16:41:00,
2013-01-25 11:45:00,17.3,2.3,30.35,NE,45,0.0,3.0,51,0.00,,,0.00,VWS V14.01,2013-01-25 16:45:00,
2013-01-25 11:46:00,17.1,2.1,30.35,NE,52,0.0,0.0,51,0.00,,,0.00,VWS V14.01,2013-01-25 16:46:00,
2013-01-25 11:51:00,17.3,1.9,30.35,North,360,4.0,6.0,50,0.00,,,0.00,VWS V14.01,2013-01-25 16:51:00,
2013-01-25 11:56:00,17.5,2.0,30.35,North,360,0.0,6.0,50,0.00,,,0.00,VWS V14.01,2013-01-25 16:56:00,
2013-01-25 12:00:00,17.5,2.0,30.35,North,0,1.0,6.0,50,0.00,,,0.00,VWS V14.01,2013-01-25 17:00:00,
2013-01-25 12:01:00,17.3,1.9,30.35,NNW,333,0.0,1.0,50,0.00,,,0.00,VWS V14.01,2013-01-25 17:01:00,
2013-01-25 12:06:00,17.8,1.9,30.35,NNW,333,0.0,4.0,49,0.00,,,0.00,VWS V14.01,2013-01-25 17:06:00,
2013-01-25 12:11:00,17.6,1.7,30.35,NNW,335,0.0,4.0,49,0.00,,,0.00,VWS V14.01,2013-01-25 17:11:00,
2013-01-25 12:15:00,17.6,2.1,30.33,North,0,1.0,5.0,50,0.00,,,0.00,VWS V14.01,2013-01-25 17:15:00,
2013-01-25 12:16:00,17.6,1.7,30.33,NNE,29,0.0,4.0,49,0.00,,,0.00,VWS V14.01,2013-01-25 17:16:00,
2013-01-25 12:21:00,18.4,3.3,30.33,NE,42,0.0,4.0,51,0.00,,,0.00,VWS V14.01,2013-01-25 17:21:00,
2013-01-25 12:26:00,18.6,2.2,30.33,NE,42,0.0,4.0,48,0.00,,,0.00,VWS V14.01,2013-01-25 17:26:00,
2013-01-25 12:30:00,18.3,1.9,30.33,NE,45,0.0,4.0,48,0.00,,,0.00,VWS V14.01,2013-01-25 17:30:00,
2013-01-25 12:31:00,18.3,2.3,30.33,NE,37,0.0,2.0,49,0.00,,,0.00,VWS V14.01,2013-01-25 17:31:00,
2013-01-25 12:36:00,18.1,2.2,30.33,WNW,298,0.0,5.0,49,0.00,,,0.00,VWS V14.01,2013-01-25 17:36:00,
2013-01-25 12:41:00,17.6,1.7,30.33,WNW,298,0.0,5.0,49,0.00,,,0.00,VWS V14.01,2013-01-25 17:41:00,
2013-01-25 12:45:00,18.3,2.8,30.31,WNW,292,1.0,5.0,50,0.00,,,0.00,VWS V14.01,2013-01-25 17:45:00,
2013-01-25 12:46:00,18.3,2.3,30.31,WNW,296,2.0,3.0,49,0.00,,,0.00,VWS V14.01,2013-01-25 17:46:00,
2013-01-25 12:51:00,17.9,2.0,30.31,WSW,256,0.0,6.0,49,0.00,,,0.00,VWS V14.01,2013-01-25 17:51:00,
2013-01-25 12:56:00,18.3,2.3,30.31,WSW,256,0.0,6.0,49,0.00,,,0.00,VWS V14.01,2013-01-25 17:56:00,
2013-01-25 13:00:00,18.6,2.2,30.30,WSW,248,0.0,6.0,48,0.00,,,0.00,VWS V14.01,2013-01-25 18:00:00,
2013-01-25 13:01:00,18.7,2.3,30.30,WSW,256,0.0,1.0,48,0.00,,,0.00,VWS V14.01,2013-01-25 18:01:00,
2013-01-25 13:06:00,19.4,2.5,30.30,WSW,256,0.0,1.0,47,0.00,,,0.00,VWS V14.01,2013-01-25 18:06:00,
2013-01-25 13:11:00,18.9,2.0,30.30,WSW,256,0.0,2.0,47,0.00,,,0.00,VWS V14.01,2013-01-25 18:11:00,
2013-01-25 13:15:00,19.0,3.0,30.28,WSW,248,0.0,2.0,49,0.00,,,0.00,VWS V14.01,2013-01-25 18:15:00,
2013-01-25 13:16:00,19.2,2.7,30.28,WSW,256,0.0,0.0,48,0.00,,,0.00,VWS V14.01,2013-01-25 18:16:00,
2013-01-25 13:21:00,19.7,2.8,30.28,West,281,0.0,0.0,47,0.00,,,0.00,VWS V14.01,2013-01-25 18:21:00,
2013-01-25 13:26:00,19.0,2.1,30.28,West,281,0.0,3.0,47,0.00,,,0.00,VWS V14.01,2013-01-25 18:26:00,
2013-01-25 13:30:00,19.2,3.2,30.27,West,270,0.0,3.0,49,0.00,,,0.00,VWS V14.01,2013-01-25 18:30:00,
2013-01-25 13:31:00,19.4,3.4,30.27,West,278,0.0,0.0,49,0.00,,,0.00,VWS V14.01,2013-01-25 18:31:00,
2013-01-25 13:36:00,19.5,2.6,30.27,WNW,289,0.0,4.0,47,0.00,,,0.00,VWS V14.01,2013-01-25 18:36:00,
2013-01-25 13:41:00,19.5,2.6,30.27,NW,307,0.0,4.0,47,0.00,,,0.00,VWS V14.01,2013-01-25 18:41:00,
2013-01-25 13:45:00,20.0,3.0,30.27,WNW,292,0.0,4.0,47,0.00,,,0.00,VWS V14.01,2013-01-25 18:45:00,
2013-01-25 13:46:00,20.0,2.6,30.27,NW,306,0.0,0.0,46,0.00,,,0.00,VWS V14.01,2013-01-25 18:46:00,
2013-01-25 13:51:00,19.8,2.4,30.27,West,267,0.0,6.0,46,0.00,,,0.00,VWS V14.01,2013-01-25 18:51:00,
2013-01-25 13:56:00,20.1,2.2,30.27,NW,315,0.0,6.0,45,0.00,,,0.00,VWS V14.01,2013-01-25 18:56:00,
2013-01-25 14:00:00,20.6,3.1,30.26,WSW,248,2.0,6.0,46,0.00,,,0.00,VWS V14.01,2013-01-25 19:00:00,
2013-01-25 14:01:00,20.5,3.0,30.26,WNW,300,0.0,4.0,46,0.00,,,0.00,VWS V14.01,2013-01-25 19:01:00,
2013-01-25 14:06:00,20.5,3.0,30.26,WNW,291,1.0,5.0,46,0.00,,,0.00,VWS V14.01,2013-01-25 19:06:00,
2013-01-25 14:11:00,20.6,3.1,30.26,West,273,0.0,5.0,46,0.00,,,0.00,VWS V14.01,2013-01-25 19:11:00,
2013-01-25 14:15:00,21.4,3.8,30.25,WNW,292,2.0,5.0,46,0.00,,,0.00,VWS V14.01,2013-01-25 19:15:00,
2013-01-25 14:16:00,21.2,3.2,30.25,NW,304,0.0,2.0,45,0.00,,,0.00,VWS V14.01,2013-01-25 19:16:00,
2013-01-25 14:21:00,21.7,3.7,30.25,NW,304,0.0,3.0,45,0.00,,,0.00,VWS V14.01,2013-01-25 19:21:00,
2013-01-25 14:26:00,21.4,2.9,30.25,NW,304,0.0,4.0,44,0.00,,,0.00,VWS V14.01,2013-01-25 19:26:00,
2013-01-25 14:30:00,21.4,2.9,30.24,NW,315,1.0,6.0,44,0.00,,,0.00,VWS V14.01,2013-01-25 19:30:00,
2013-01-25 14:31:00,21.2,3.2,30.24,WNW,294,1.0,2.0,45,0.00,,,0.00,VWS V14.01,2013-01-25 19:31:00,
2013-01-25 14:36:00,21.9,4.3,30.24,WNW,298,2.0,5.0,46,0.00,,,0.00,VWS V14.01,2013-01-25 19:36:00,
2013-01-25 14:41:00,21.7,2.7,30.24,WSW,242,5.0,6.0,43,0.00,,,0.00,VWS V14.01,2013-01-25 19:41:00,
2013-01-25 14:45:00,21.6,3.1,30.23,West,270,1.0,6.0,44,0.00,,,0.00,VWS V14.01,2013-01-25 19:45:00,
2013-01-25 14:46:00,21.6,2.6,30.23,WSW,243,0.0,0.0,43,0.00,,,0.00,VWS V14.01,2013-01-25 19:46:00,
2013-01-25 14:51:00,21.7,3.7,30.23,WNW,291,3.0,5.0,45,0.00,,,0.00,VWS V14.01,2013-01-25 19:51:00,
2013-01-25 14:56:00,21.9,3.8,30.23,WNW,287,6.0,6.0,45,0.00,,,0.00,VWS V14.01,2013-01-25 19:56:00,
2013-01-25 15:00:00,21.7,3.2,30.22,WNW,292,2.0,6.0,44,0.00,,,0.00,VWS V14.01,2013-01-25 20:00:00,
2013-01-25 15:01:00,21.7,3.2,30.22,West,279,6.0,6.0,44,0.00,,,0.00,VWS V14.01,2013-01-25 20:01:00,
2013-01-25 15:06:00,21.6,3.5,30.22,WNW,282,0.0,6.0,45,0.00,,,0.00,VWS V14.01,2013-01-25 20:06:00,
2013-01-25 15:11:00,21.6,4.0,30.22,WNW,282,0.0,6.0,46,0.00,,,0.00,VWS V14.01,2013-01-25 20:11:00,
2013-01-25 15:15:00,21.7,3.7,30.22,WNW,292,1.0,6.0,45,0.00,,,0.00,VWS V14.01,2013-01-25 20:15:00,
2013-01-25 15:16:00,21.7,3.7,30.22,WNW,282,0.0,0.0,45,0.00,,,0.00,VWS V14.01,2013-01-25 20:16:00,
2013-01-25 15:21:00,21.9,3.8,30.22,West,279,4.0,7.0,45,0.00,,,0.00,VWS V14.01,2013-01-25 20:21:00,
2013-01-25 15:26:00,21.9,2.8,30.22,West,275,0.0,7.0,43,0.00,,,0.00,VWS V14.01,2013-01-25 20:26:00,
2013-01-25 15:30:00,21.9,2.3,30.22,West,270,1.0,7.0,42,0.00,,,0.00,VWS V14.01,2013-01-25 20:30:00,
2013-01-25 15:31:00,21.9,2.3,30.22,WNW,282,5.0,6.0,42,0.00,,,0.00,VWS V14.01,2013-01-25 20:31:00,
2013-01-25 15:36:00,21.9,1.8,30.22,WNW,291,5.0,6.0,41,0.00,,,0.00,VWS V14.01,2013-01-25 20:36:00,
2013-01-25 15:41:00,21.7,1.1,30.22,West,271,0.0,8.0,40,0.00,,,0.00,VWS V14.01,2013-01-25 20:41:00,
2013-01-25 15:45:00,21.6,1.0,30.21,West,270,3.0,8.0,40,0.00,,,0.00,VWS V14.01,2013-01-25 20:45:00,
2013-01-25 15:46:00,21.6,1.0,30.21,West,273,5.0,6.0,40,0.00,,,0.00,VWS V14.01,2013-01-25 20:46:00,
2013-01-25 15:51:00,21.6,1.0,30.21,WNW,287,0.0,6.0,40,0.00,,,0.00,VWS V14.01,2013-01-25 20:51:00,
2013-01-25 15:56:00,21.6,1.5,30.21,WSW,256,0.0,7.0,41,0.00,,,0.00,VWS V14.01,2013-01-25 20:56:00,
2013-01-25 16:00:00,21.6,2.1,30.20,WSW,248,1.0,7.0,42,0.00,,,0.00,VWS V14.01,2013-01-25 21:00:00,
2013-01-25 16:01:00,21.6,2.1,30.20,WNW,291,2.0,2.0,42,0.00,,,0.00,VWS V14.01,2013-01-25 21:01:00,
2013-01-25 16:06:00,21.6,1.5,30.20,WNW,290,0.0,5.0,41,0.00,,,0.00,VWS V14.01,2013-01-25 21:06:00,
2013-01-25 16:11:00,21.6,1.5,30.20,West,272,7.0,7.0,41,0.00,,,0.00,VWS V14.01,2013-01-25 21:11:00,
2013-01-25 16:15:00,21.6,1.5,30.20,West,270,4.0,8.0,41,0.00,,,0.00,VWS V14.01,2013-01-25 21:15:00,
2013-01-25 16:16:00,21.4,1.4,30.20,West,275,4.0,6.0,41,0.00,,,0.00,VWS V14.01,2013-01-25 21:16:00,
2013-01-25 16:21:00,21.4,1.9,30.20,West,259,1.0,7.0,42,0.00,,,0.00,VWS V14.01,2013-01-25 21:21:00,
2013-01-25 16:26:00,21.4,3.8,30.20,SE,134,0.0,7.0,46,0.00,,,0.00,VWS V14.01,2013-01-25 21:26:00,
2013-01-25 16:30:00,21.2,4.6,30.21,West,275,8.0,8.0,48,0.00,,,0.00,VWS V14.01,2013-01-25 21:30:00,
2013-01-25 16:35:00,20.8,4.7,30.21,SW,223,0.0,9.0,49,0.00,,,0.00,VWS V14.01,2013-01-25 21:35:00,
2013-01-25 16:40:00,20.6,5.3,30.21,West,274,5.0,9.0,51,0.00,,,0.00,VWS V14.01,2013-01-25 21:40:00,
2013-01-25 16:45:00,20.3,6.3,30.19,West,269,0.0,0.0,54,0.00,,,0.00,VWS V14.01,2013-01-25 21:45:00,
2013-01-25 16:50:00,20.0,7.2,30.19,West,269,4.0,7.0,57,0.00,,,0.00,VWS V14.01,2013-01-25 21:50:00,
2013-01-25 16:55:00,19.7,7.7,30.19,WNW,288,0.0,7.0,59,0.00,,,0.00,VWS V14.01,2013-01-25 21:55:00,
2013-01-25 17:00:00,19.5,7.9,30.19,West,281,0.0,2.0,60,0.00,,,0.00,VWS V14.01,2013-01-25 22:00:00,
2013-01-25 17:05:00,19.4,8.2,30.19,West,265,0.0,5.0,61,0.00,,,0.00,VWS V14.01,2013-01-25 22:05:00,
2013-01-25 17:10:00,19.0,8.5,30.19,SW,233,2.0,9.0,63,0.00,,,0.00,VWS V14.01,2013-01-25 22:10:00,
2013-01-25 17:15:00,18.7,8.9,30.18,West,265,1.0,5.0,65,0.00,,,0.00,VWS V14.01,2013-01-25 22:15:00,
2013-01-25 17:20:00,18.6,9.5,30.18,West,276,4.0,5.0,67,0.00,,,0.00,VWS V14.01,2013-01-25 22:20:00,
2013-01-25 17:25:00,18.4,9.6,30.18,West,280,0.0,5.0,68,0.00,,,0.00,VWS V14.01,2013-01-25 22:25:00,
2013-01-25 17:30:00,18.4,9.9,30.17,West,280,0.0,0.0,69,0.00,,,0.00,VWS V14.01,2013-01-25 22:30:00,
2013-01-25 17:35:00,18.4,10.3,30.17,West,280,0.0,0.0,70,0.00,,,0.00,VWS V14.01,2013-01-25 22:35:00,
2013-01-25 17:40:00,18.4,10.3,30.17,West,280,0.0,0.0,70,0.00,,,0.00,VWS V14.01,2013-01-25 22:40:00,
2013-01-25 17:45:00,18.4,10.3,30.16,West,280,0.0,0.0,70,0.00,,,0.00,VWS V14.01,2013-01-25 22:45:00,
2013-01-25 17:50:00,18.3,10.2,30.16,West,280,0.0,1.0,70,0.00,,,0.00,VWS V14.01,2013-01-25 22:50:00,
2013-01-25 17:55:00,18.4,10.6,30.16,West,280,0.0,1.0,71,0.00,,,0.00,VWS V14.01,2013-01-25 22:55:00,
2013-01-25 18:00:00,18.4,10.6,30.16,NW,326,0.0,0.0,71,0.00,,,0.00,VWS V14.01,2013-01-25 23:00:00,
2013-01-25 18:05:00,18.4,10.9,30.16,NW,323,0.0,2.0,72,0.00,,,0.00,VWS V14.01,2013-01-25 23:05:00,
2013-01-25 18:10:00,18.3,11.1,30.16,WNW,295,0.0,5.0,73,0.00,,,0.00,VWS V14.01,2013-01-25 23:10:00,
2013-01-25 18:15:00,18.3,11.4,30.16,West,277,2.0,2.0,74,0.00,,,0.00,VWS V14.01,2013-01-25 23:15:00,
2013-01-25 18:20:00,18.1,11.5,30.16,WNW,282,2.0,4.0,75,0.00,,,0.00,VWS V14.01,2013-01-25 23:20:00,
2013-01-25 18:25:00,17.9,11.6,30.16,WNW,282,0.0,4.0,76,0.00,,,0.00,VWS V14.01,2013-01-25 23:25:00,
2013-01-25 18:30:00,17.9,11.9,30.16,WNW,282,0.0,0.0,77,0.00,,,0.00,VWS V14.01,2013-01-25 23:30:00,
2013-01-25 18:35:00,17.8,12.1,30.16,WNW,282,2.0,5.0,78,0.00,,,0.00,VWS V14.01,2013-01-25 23:35:00,
2013-01-25 18:40:00,17.6,11.9,30.16,WNW,282,0.0,5.0,78,0.00,,,0.00,VWS V14.01,2013-01-25 23:40:00,
2013-01-25 18:45:00,17.6,12.2,30.16,WNW,282,0.0,0.0,79,0.00,,,0.00,VWS V14.01,2013-01-25 23:45:00,
2013-01-25 18:50:00,17.6,12.5,30.16,WNW,282,0.0,0.0,80,0.00,,,0.00,VWS V14.01,2013-01-25 23:50:00,
2013-01-25 18:55:00,17.6,12.5,30.16,WNW,282,0.0,0.0,80,0.00,,,0.00,VWS V14.01,2013-01-25 23:55:00,
2013-01-25 19:00:00,17.8,13.0,30.16,WNW,282,0.0,2.0,81,0.00,,,0.00,VWS V14.01,2013-01-26 00:00:00,
2013-01-25 19:05:00,17.6,12.8,30.16,WNW,282,2.0,2.0,81,0.00,,,0.00,VWS V14.01,2013-01-26 00:05:00,
2013-01-25 19:10:00,17.6,12.8,30.16,WNW,282,2.0,3.0,81,0.00,,,0.00,VWS V14.01,2013-01-26 00:10:00,
2013-01-25 19:15:00,17.5,12.7,30.15,West,269,0.0,3.0,81,0.00,,,0.00,VWS V14.01,2013-01-26 00:15:00,
2013-01-25 19:20:00,17.5,12.7,30.15,West,269,0.0,0.0,81,0.00,,,0.00,VWS V14.01,2013-01-26 00:20:00,
2013-01-25 19:25:00,17.5,12.7,30.15,WNW,292,4.0,4.0,81,0.00,,,0.00,VWS V14.01,2013-01-26 00:25:00,
2013-01-25 19:30:00,17.5,12.7,30.14,West,274,1.0,6.0,81,0.01,,,0.01,VWS V14.01,2013-01-26 00:30:00,
2013-01-25 19:35:00,17.5,12.7,30.14,WSW,241,0.0,4.0,81,0.01,,,0.01,VWS V14.01,2013-01-26 00:35:00,
2013-01-25 19:40:00,17.5,12.7,30.14,WNW,286,0.0,4.0,81,0.01,,,0.01,VWS V14.01,2013-01-26 00:40:00,
2013-01-25 19:45:00,17.3,12.5,30.14,WNW,286,0.0,4.0,81,0.01,,,0.01,VWS V14.01,2013-01-26 00:45:00,
2013-01-25 19:50:00,17.3,12.5,30.14,WNW,286,0.0,0.0,81,0.01,,,0.01,VWS V14.01,2013-01-26 00:50:00,
2013-01-25 19:55:00,17.3,12.5,30.14,WNW,284,0.0,4.0,81,0.01,,,0.01,VWS V14.01,2013-01-26 00:55:00,
2013-01-25 20:00:00,17.1,12.3,30.14,WNW,284,2.0,4.0,81,0.01,,,0.01,VWS V14.01,2013-01-26 01:00:00,
2013-01-25 20:05:00,17.1,12.3,30.14,WSW,251,0.0,3.0,81,0.01,,,0.01,VWS V14.01,2013-01-26 01:05:00,
2013-01-25 20:10:00,17.0,11.9,30.14,WSW,240,1.0,5.0,80,0.01,,,0.01,VWS V14.01,2013-01-26 01:10:00,
2013-01-25 20:15:00,17.0,11.9,30.14,WNW,282,0.0,5.0,80,0.01,,,0.01,VWS V14.01,2013-01-26 01:15:00,
2013-01-25 20:20:00,17.0,11.9,30.14,WNW,282,0.0,0.0,80,0.01,,,0.01,VWS V14.01,2013-01-26 01:20:00,
2013-01-25 20:25:00,16.8,11.7,30.14,WNW,282,0.0,0.0,80,0.01,,,0.01,VWS V14.01,2013-01-26 01:25:00,
2013-01-25 20:30:00,16.8,11.7,30.13,WNW,282,0.0,0.0,80,0.01,,,0.01,VWS V14.01,2013-01-26 01:30:00,
2013-01-25 20:35:00,16.7,11.6,30.13,WNW,282,0.0,0.0,80,0.00,,,0.01,VWS V14.01,2013-01-26 01:35:00,
2013-01-25 20:40:00,16.7,11.3,30.13,WNW,282,0.0,0.0,79,0.00,,,0.01,VWS V14.01,2013-01-26 01:40:00,
2013-01-25 20:45:00,16.7,11.3,30.12,WNW,282,0.0,0.0,79,0.00,,,0.01,VWS V14.01,2013-01-26 01:45:00,
2013-01-25 20:50:00,16.5,11.1,30.12,WNW,282,0.0,0.0,79,0.00,,,0.01,VWS V14.01,2013-01-26 01:50:00,
2013-01-25 20:55:00,16.3,10.9,30.12,WNW,282,0.0,0.0,79,0.00,,,0.01,VWS V14.01,2013-01-26 01:55:00,
2013-01-25 21:00:00,16.2,10.8,30.11,WNW,282,0.0,0.0,79,0.00,,,0.01,VWS V14.01,2013-01-26 02:00:00,
2013-01-25 21:05:00,16.2,10.8,30.11,WNW,282,0.0,0.0,79,0.00,,,0.01,VWS V14.01,2013-01-26 02:05:00,
2013-01-25 21:10:00,15.8,10.2,30.11,WNW,282,0.0,0.0,78,0.00,,,0.01,VWS V14.01,2013-01-26 02:10:00,
2013-01-25 21:15:00,15.7,10.1,30.11,WNW,282,0.0,0.0,78,0.00,,,0.01,VWS V14.01,2013-01-26 02:15:00,
2013-01-25 21:20:00,15.5,9.9,30.11,WNW,282,0.0,0.0,78,0.00,,,0.01,VWS V14.01,2013-01-26 02:20:00,
2013-01-25 21:25:00,15.2,9.9,30.11,WNW,282,0.0,0.0,79,0.00,,,0.01,VWS V14.01,2013-01-26 02:25:00,
2013-01-25 21:30:00,15.0,9.7,30.11,WNW,282,0.0,0.0,79,0.00,,,0.01,VWS V14.01,2013-01-26 02:30:00,
2013-01-25 21:35:00,14.7,9.4,30.11,WNW,282,0.0,0.0,79,0.00,,,0.01,VWS V14.01,2013-01-26 02:35:00,
2013-01-25 21:40:00,14.4,9.1,30.11,WNW,282,0.0,0.0,79,0.00,,,0.01,VWS V14.01,2013-01-26 02:40:00,
2013-01-25 21:45:00,14.2,9.2,30.11,WNW,282,0.0,0.0,80,0.00,,,0.01,VWS V14.01,2013-01-26 02:45:00,
2013-01-25 21:50:00,14.1,9.1,30.11,WNW,282,0.0,0.0,80,0.00,,,0.01,VWS V14.01,2013-01-26 02:50:00,
2013-01-25 21:55:00,13.9,8.9,30.11,WNW,282,0.0,0.0,80,0.00,,,0.01,VWS V14.01,2013-01-26 02:55:00,
2013-01-25 22:00:00,13.5,8.5,30.10,WNW,282,0.0,0.0,80,0.00,,,0.01,VWS V14.01,2013-01-26 03:00:00,
2013-01-25 22:05:00,13.4,8.7,30.10,WNW,282,0.0,0.0,81,0.00,,,0.01,VWS V14.01,2013-01-26 03:05:00,
2013-01-25 22:10:00,13.4,8.7,30.10,WNW,282,0.0,0.0,81,0.00,,,0.01,VWS V14.01,2013-01-26 03:10:00,
2013-01-25 22:15:00,13.2,8.5,30.10,WNW,282,0.0,0.0,81,0.00,,,0.01,VWS V14.01,2013-01-26 03:15:00,
2013-01-25 22:20:00,13.0,8.3,30.10,WNW,282,0.0,0.0,81,0.00,,,0.01,VWS V14.01,2013-01-26 03:20:00,
2013-01-25 22:25:00,12.9,8.2,30.10,WNW,282,0.0,0.0,81,0.00,,,0.01,VWS V14.01,2013-01-26 03:25:00,
2013-01-25 22:30:00,12.7,8.0,30.10,WNW,282,0.0,0.0,81,0.00,,,0.01,VWS V14.01,2013-01-26 03:30:00,
2013-01-25 22:35:00,12.5,7.8,30.10,WNW,282,0.0,0.0,81,0.00,,,0.01,VWS V14.01,2013-01-26 03:35:00,
2013-01-25 22:40:00,12.3,7.6,30.10,WNW,300,0.0,1.0,81,0.00,,,0.01,VWS V14.01,2013-01-26 03:40:00,
2013-01-25 22:45:00,12.3,7.9,30.10,NW,315,0.0,1.0,82,0.00,,,0.01,VWS V14.01,2013-01-26 03:45:00,
2013-01-25 22:50:00,12.3,7.9,30.10,NW,315,0.0,0.0,82,0.00,,,0.01,VWS V14.01,2013-01-26 03:50:00,
2013-01-25 22:55:00,12.3,7.9,30.10,NW,315,0.0,0.0,82,0.00,,,0.01,VWS V14.01,2013-01-26 03:55:00,
2013-01-25 23:00:00,12.3,7.9,30.09,NW,314,0.0,0.0,82,0.00,,,0.01,VWS V14.01,2013-01-26 04:00:00,
2013-01-25 23:05:00,12.3,7.9,30.09,NW,315,0.0,0.0,82,0.00,,,0.01,VWS V14.01,2013-01-26 04:05:00,
2013-01-25 23:10:00,12.3,7.9,30.09,NW,315,0.0,0.0,82,0.00,,,0.01,VWS V14.01,2013-01-26 04:10:00,
2013-01-25 23:14:00,12.5,8.3,30.09,NW,315,0.0,0.0,83,0.00,,,0.01,VWS V14.01,2013-01-26 04:14:00,
2013-01-25 23:15:00,12.5,8.3,30.09,WNW,292,0.0,0.0,83,0.00,,,0.01,VWS V14.01,2013-01-26 04:15:00,
2013-01-25 23:19:00,12.5,8.3,30.09,NW,315,0.0,0.0,83,0.00,,,0.01,VWS V14.01,2013-01-26 04:19:00,
2013-01-25 23:24:00,12.5,8.1,30.09,NW,315,0.0,0.0,82,0.00,,,0.01,VWS V14.01,2013-01-26 04:24:00,
2013-01-25 23:29:00,12.3,7.9,30.10,NW,315,0.0,0.0,82,0.00,,,0.01,VWS V14.01,2013-01-26 04:29:00,
2013-01-25 23:30:00,12.3,7.9,30.10,WNW,292,0.0,0.0,82,0.00,,,0.01,VWS V14.01,2013-01-26 04:30:00,
2013-01-25 23:34:00,12.2,7.8,30.10,NW,315,0.0,0.0,82,0.00,,,0.01,VWS V14.01,2013-01-26 04:34:00,
2013-01-25 23:39:00,12.0,7.6,30.10,NW,315,0.0,0.0,82,0.00,,,0.01,VWS V14.01,2013-01-26 04:39:00,
2013-01-25 23:44:00,11.8,7.4,30.10,NW,315,0.0,0.0,82,0.00,,,0.01,VWS V14.01,2013-01-26 04:44:00,
2013-01-25 23:45:00,11.8,7.4,30.10,WNW,292,0.0,0.0,82,0.00,,,0.01,VWS V14.01,2013-01-26 04:45:00,
2013-01-25 23:49:00,11.8,7.4,30.10,NW,315,0.0,0.0,82,0.00,,,0.01,VWS V14.01,2013-01-26 04:49:00,
2013-01-25 23:54:00,11.7,7.3,30.10,NW,315,0.0,0.0,82,0.00,,,0.01,VWS V14.01,2013-01-26 04:54:00,
2013-01-25 23:59:00,11.8,7.4,30.11,NW,315,0.0,0.0,82,0.00,,,0.01,VWS V14.01,2013-01-26 04:59:00,